Home > Time Zones > World Clock > Weather > India > Moga > Past weeks

Flag for India Weather past 2 weeks in Moga, Punjab, India

Now
77 °F

Fog.


Feels Like: 78 °F
Forecast: 77 / 101 °F
Wind: No wind

Location: Amritsar Airport

Current Time: Aug 31, 2015 at 6:38:30 AM

Latest Report: Aug 31, 2015 at 6:00 AM


Visibility: 2 mi

Pressure: 29.62 "Hg

Humidity: 89%

Dew point: 73 °F

Location of MogaLocation

Historic Weather in Moga — Graph

°F

Moga temperature yesterday

Maximum temperature yesterday: 97 °F (at 1:00 PM)
Minimum temperature yesterday: 81 °F (at 10:00 PM)
Average temperature yesterday: 89 °F

Past Weeks' High & Low Weather Summary

 TemperatureHumidityPressure
High97 °F (Aug 27, 1:00 PM)100% (Aug 16, 5:30 AM)29.71 "Hg (Aug 16, 5:30 AM)
Low75 °F (Aug 21, 5:00 PM)44% (Aug 29, 1:30 PM)29.53 "Hg (Aug 20, 5:00 PM)
Average86 °F82%29.61 "Hg
* Reported Aug 16 4:30 AM — Aug 31 4:30 AM, Moga, Weather by CustomWeather, © 2015

Note: Actual official high and low records may vary slightly from our data, if they occured in-between our weather recording intervals... More about our weather records

Advertising

Moga weather history for previous 24 hours

 ConditionsComfort  
Time TempWeatherWind HumidityBarometerVisibility
4:30 AM
Mon, Aug 31
77 °FFog.No wind89%29.62 "Hg2 mi
4:00 AM77 °FFog.No wind89%29.62 "Hg2 mi
3:30 AM77 °FFog.No wind83%29.62 "Hg2 mi
2:30 AM77 °FThundershowers. Passing clouds.No wind83%29.62 "Hg2 mi
2:00 AM81 °FThundershowers. Passing clouds.No wind84%29.62 "Hg2 mi
1:30 AM81 °FThundershowers. Passing clouds.No wind84%29.62 "Hg2 mi
1:00 AM81 °FThundershowers. Passing clouds.6 mph84%29.62 "Hg2 mi
12:30 AM81 °FThundershowers. Passing clouds.6 mph84%29.65 "Hg2 mi
12:00 AM82 °FThundershowers. Passing clouds.13 mph74%29.65 "Hg2 mi
11:00 PM
Sun, Aug 30
82 °FFog.No wind79%29.62 "Hg2 mi
10:00 PM81 °FThundershowers. Passing clouds.No wind84%29.62 "Hg2 mi
9:30 PM82 °FThundershowers. Passing clouds.2 mph79%29.59 "Hg2 mi
9:00 PM84 °FThundershowers. Passing clouds.7 mph70%29.59 "Hg2 mi
8:30 PM84 °FThundershowers. Passing clouds.9 mph70%29.59 "Hg2 mi
8:00 PM88 °FFog.10 mph70%29.59 "Hg2 mi
7:30 PM90 °FPassing clouds.2 mph75%29.56 "Hg2 mi
7:00 PM91 °FScattered clouds.5 mph71%29.56 "Hg3 mi
6:00 PM93 °FScattered clouds.2 mph67%29.53 "Hg3 mi
5:30 PM93 °FScattered clouds.6 mph67%29.53 "Hg3 mi
5:00 PM93 °FScattered clouds.5 mph63%29.53 "Hg3 mi
4:30 PM95 °FScattered clouds.3 mph63%29.56 "Hg3 mi
4:00 PM95 °FScattered clouds.5 mph60%29.56 "Hg3 mi
3:30 PM95 °FScattered clouds.6 mph60%29.56 "Hg3 mi
3:00 PM95 °FScattered clouds.2 mph60%29.56 "Hg3 mi
2:30 PM97 °FScattered clouds.3 mph56%29.59 "Hg3 mi
2:00 PM95 °FScattered clouds.5 mph56%29.62 "Hg3 mi
1:30 PM97 °FScattered clouds.5 mph53%29.62 "Hg3 mi
1:00 PM97 °FScattered clouds.3 mph44%29.62 "Hg3 mi
12:30 PM95 °FScattered clouds.2 mph56%29.62 "Hg3 mi
12:00 PM95 °FScattered clouds.2 mph60%29.65 "Hg3 mi
11:00 AM95 °FScattered clouds.No wind60%29.65 "Hg2 mi
10:30 AM93 °FScattered clouds.No wind59%29.65 "Hg2 mi
10:00 AM91 °FHaze.No wind67%29.65 "Hg2 mi
9:00 AM90 °FFog.No wind75%29.65 "Hg2 mi
8:30 AM88 °FFog.No wind79%29.65 "Hg2 mi
8:00 AM88 °FFog.No wind79%29.65 "Hg1 mi
7:30 AM84 °FFog.No wind89%29.65 "Hg1 mi
7:00 AM82 °FFog.No wind94%29.62 "Hg1 mi
6:30 AM82 °FFog.No wind94%29.62 "Hg1 mi
6:00 AM82 °FFog.No wind94%29.62 "Hg1 mi
Weather by CustomWeather, © 2015

See weather overviewHow to use our weather pages